EJU35TP EDDB-LEBL

Flight info

Callsign EJU35TP
Flight time N/A
Altitude 37000
Route KISUC1N KISUC Z117 ORTAG DCT BAMKI/N0428F360 DCT IBAGA DCT DKB DCT TEDGO/N0435F370 N869 NATOR DCT LUTIX DCT BENOT DCT NEMOS DCT GEVEA DCT INCUS DCT BALSI DCT RETNO DCT TUPOX DCT MTG DCT DIVKO DCT NILDU DCT BISBA
Aircraft A20N/M-SDE2E3FGHIRWXY/LB1

Departure

Time N/A
Airport Berlin Brandenburg Airport (EDDB)

Arrival

Time 2026-05-04 12:12
Airport Josep Tarradellas Barcelona-El Prat Airport (LEBL)
Time Latitude Longitude Altitude Speed Heading
2026-05-04 11:26 43.71496 5.26199 37034 ft 388 kts 205°
2026-05-04 11:27 43.53283 5.16454 37031 ft 386 kts 205°
2026-05-04 11:28 43.48083 5.13685 37028 ft 386 kts 205°
2026-05-04 11:28 43.43066 5.10989 37023 ft 385 kts 207°
2026-05-04 11:29 43.38229 5.07802 37016 ft 382 kts 212°
2026-05-04 11:29 43.33708 5.03993 37006 ft 379 kts 218°
2026-05-04 11:33 43.03413 4.74977 36991 ft 374 kts 224°
2026-05-04 11:33 42.99485 4.70225 36992 ft 373 kts 224°
2026-05-04 11:34 42.95584 4.65522 36988 ft 373 kts 224°
2026-05-04 11:34 42.91626 4.60751 36983 ft 373 kts 224°
2026-05-04 11:35 42.87648 4.55964 36979 ft 373 kts 224°
2026-05-04 11:35 42.83662 4.51175 36978 ft 373 kts 224°
2026-05-04 11:36 42.79749 4.46477 36972 ft 373 kts 224°
2026-05-04 11:36 42.75743 4.41680 36973 ft 372 kts 224°
2026-05-04 11:37 42.71693 4.36838 36969 ft 372 kts 224°
2026-05-04 11:37 42.69671 4.34427 36663 ft 372 kts 223°
2026-05-04 11:37 42.67670 4.32041 36355 ft 368 kts 223°
2026-05-04 11:38 42.65651 4.29633 36086 ft 365 kts 223°
2026-05-04 11:38 42.63696 4.27306 35843 ft 363 kts 223°
2026-05-04 11:38 42.61788 4.25036 35611 ft 362 kts 223°
2026-05-04 11:38 42.59887 4.22774 35378 ft 362 kts 223°
2026-05-04 11:39 42.57990 4.20521 35138 ft 362 kts 223°
2026-05-04 11:39 42.56104 4.18283 34906 ft 362 kts 223°
2026-05-04 11:40 42.44562 4.04623 32215 ft 364 kts 223°
2026-05-04 11:41 42.42670 4.02391 31579 ft 364 kts 223°
2026-05-04 11:41 42.40768 4.00149 30935 ft 364 kts 223°
2026-05-04 11:41 42.38799 3.97832 30253 ft 364 kts 223°
2026-05-04 11:41 42.36919 3.95620 29781 ft 360 kts 223°
2026-05-04 11:42 42.35044 3.93415 29333 ft 355 kts 223°
2026-05-04 11:42 42.33176 3.91222 28879 ft 350 kts 223°
2026-05-04 11:42 42.31282 3.89002 28411 ft 346 kts 223°
2026-05-04 11:42 42.29496 3.86906 27971 ft 343 kts 223°
2026-05-04 11:43 42.27708 3.84809 27527 ft 339 kts 223°
2026-05-04 11:43 42.25915 3.82712 27080 ft 336 kts 223°
2026-05-04 11:43 42.24128 3.80620 26640 ft 333 kts 223°
2026-05-04 11:43 42.22390 3.78584 26214 ft 331 kts 223°
2026-05-04 11:44 42.20675 3.76583 25787 ft 328 kts 223°
2026-05-04 11:44 42.18972 3.74593 25365 ft 326 kts 223°
2026-05-04 11:44 42.17229 3.72559 24926 ft 325 kts 223°
2026-05-04 11:44 42.15509 3.70554 24498 ft 323 kts 223°
2026-05-04 11:45 42.13828 3.68596 24080 ft 322 kts 222°
2026-05-04 11:45 42.12144 3.66637 23657 ft 321 kts 223°
2026-05-04 11:45 42.10452 3.64604 23216 ft 319 kts 226°
2026-05-04 11:45 42.08998 3.62342 22785 ft 317 kts 234°
2026-05-04 11:46 42.07808 3.59834 22361 ft 316 kts 241°
2026-05-04 11:46 42.06856 3.57166 21940 ft 317 kts 245°
2026-05-04 11:46 42.05938 3.54403 21519 ft 316 kts 245°
2026-05-04 11:46 42.05058 3.51737 21106 ft 315 kts 245°
2026-05-04 11:47 42.04172 3.49056 20694 ft 314 kts 245°
2026-05-04 11:47 42.03285 3.46381 20283 ft 313 kts 245°
2026-05-04 11:47 42.02374 3.43638 19841 ft 312 kts 245°
2026-05-04 11:47 42.01443 3.40839 19393 ft 312 kts 245°
2026-05-04 11:48 42.00479 3.37939 18944 ft 310 kts 244°
2026-05-04 11:48 41.99564 3.35189 18514 ft 310 kts 244°
2026-05-04 11:48 41.98669 3.32510 18079 ft 309 kts 244°
2026-05-04 11:48 41.97794 3.29894 17671 ft 309 kts 244°
2026-05-04 11:49 41.96912 3.27256 17248 ft 308 kts 244°
2026-05-04 11:49 41.96038 3.24640 16824 ft 307 kts 243°
2026-05-04 11:49 41.95068 3.21970 16402 ft 305 kts 239°
2026-05-04 11:49 41.93950 3.19408 15978 ft 303 kts 236°
2026-05-04 11:50 41.92750 3.17057 15564 ft 302 kts 233°
2026-05-04 11:50 41.91550 3.14798 15167 ft 301 kts 233°
2026-05-04 11:50 41.90293 3.12437 14760 ft 299 kts 232°
2026-05-04 11:50 41.89097 3.10191 14366 ft 298 kts 232°
2026-05-04 11:51 41.87756 3.07673 13924 ft 297 kts 232°
2026-05-04 11:51 41.86510 3.05337 13522 ft 296 kts 232°
2026-05-04 11:51 41.85298 3.03067 13123 ft 295 kts 232°
2026-05-04 11:51 41.84112 3.00847 12728 ft 294 kts 232°
2026-05-04 11:52 41.82925 2.98629 12330 ft 293 kts 232°
2026-05-04 11:52 41.81704 2.96345 11916 ft 292 kts 232°
2026-05-04 11:52 41.80511 2.94117 11527 ft 291 kts 232°
2026-05-04 11:52 41.79332 2.91919 11143 ft 290 kts 232°
2026-05-04 11:53 41.78163 2.89739 10762 ft 288 kts 232°
2026-05-04 11:53 41.76957 2.87494 10359 ft 287 kts 232°
2026-05-04 11:53 41.75812 2.85359 10112 ft 278 kts 232°
2026-05-04 11:53 41.74712 2.83305 10013 ft 265 kts 232°
2026-05-04 11:55 41.66640 2.68331 9932 ft 272 kts 232°
2026-05-04 11:55 41.65528 2.66272 9951 ft 272 kts 232°
2026-05-04 11:56 41.64468 2.64178 9955 ft 273 kts 238°
2026-05-04 11:56 41.63608 2.61806 9960 ft 275 kts 246°
2026-05-04 11:56 41.62935 2.59237 9939 ft 275 kts 249°
2026-05-04 11:56 41.62339 2.56821 9950 ft 275 kts 249°
2026-05-04 11:57 41.61737 2.54361 9954 ft 274 kts 249°
2026-05-04 11:57 41.61134 2.51917 9958 ft 274 kts 249°
2026-05-04 11:57 41.60531 2.49486 9952 ft 274 kts 249°
2026-05-04 11:57 41.59925 2.47060 9952 ft 274 kts 249°
2026-05-04 11:58 41.59325 2.44661 9957 ft 273 kts 249°
2026-05-04 11:58 41.58714 2.42211 9900 ft 274 kts 249°
2026-05-04 11:58 41.58109 2.39794 9536 ft 272 kts 249°
2026-05-04 11:58 41.57502 2.37442 9181 ft 270 kts 246°
2026-05-04 11:59 41.56674 2.35041 8778 ft 268 kts 240°
2026-05-04 11:59 41.55711 2.32884 8401 ft 266 kts 236°
2026-05-04 11:59 41.54741 2.30812 8186 ft 264 kts 236°
2026-05-04 11:59 41.53678 2.28567 8097 ft 265 kts 233°
2026-05-04 12:00 41.52252 2.26904 7874 ft 254 kts 200°
2026-05-04 12:00 41.50528 2.26779 7862 ft 241 kts 166°
2026-05-04 12:00 41.49008 2.27673 7903 ft 240 kts 156°
2026-05-04 12:00 41.47496 2.28681 7930 ft 240 kts 155°
2026-05-04 12:01 41.46190 2.30107 7929 ft 248 kts 126°
2026-05-04 12:01 41.45656 2.32367 7946 ft 258 kts 91°
2026-05-04 12:02 41.50378 2.46738 7902 ft 265 kts 68°
2026-05-04 12:03 41.51169 2.49055 7619 ft 262 kts 68°
2026-05-04 12:03 41.51915 2.51263 7336 ft 261 kts 70°
2026-05-04 12:03 41.52194 2.53563 7022 ft 250 kts 104°
2026-05-04 12:03 41.51448 2.55548 6743 ft 235 kts 140°
2026-05-04 12:04 41.50073 2.56685 6469 ft 224 kts 161°
2026-05-04 12:04 41.48642 2.57411 6233 ft 218 kts 169°
2026-05-04 12:04 41.47194 2.57315 6067 ft 204 kts 205°
2026-05-04 12:04 41.46096 2.56156 5916 ft 205 kts 236°
2026-05-04 12:05 41.45465 2.54367 5748 ft 205 kts 245°
2026-05-04 12:05 41.44912 2.52633 5599 ft 203 kts 244°
2026-05-04 12:05 41.44339 2.50898 5263 ft 204 kts 244°
2026-05-04 12:05 41.43756 2.49157 4899 ft 206 kts 244°
2026-05-04 12:06 41.43173 2.47327 4623 ft 204 kts 246°
2026-05-04 12:06 41.42634 2.45575 4327 ft 203 kts 246°
2026-05-04 12:06 41.42041 2.43715 4079 ft 203 kts 246°
2026-05-04 12:06 41.41437 2.41887 3855 ft 204 kts 246°
2026-05-04 12:07 41.40854 2.40164 3653 ft 205 kts 246°
2026-05-04 12:07 41.40250 2.38412 3463 ft 206 kts 245°
2026-05-04 12:07 41.39649 2.36683 3276 ft 205 kts 245°
2026-05-04 12:07 41.39052 2.34968 3084 ft 204 kts 245°
2026-05-04 12:08 41.38438 2.33206 2889 ft 203 kts 245°
2026-05-04 12:08 41.37856 2.31530 2797 ft 194 kts 245°
2026-05-04 12:08 41.37321 2.29988 2904 ft 174 kts 245°
2026-05-04 12:08 41.36811 2.28515 2868 ft 172 kts 245°
2026-05-04 12:09 41.36299 2.27035 2661 ft 172 kts 245°
2026-05-04 12:09 41.35801 2.25591 2436 ft 172 kts 245°
2026-05-04 12:09 41.35294 2.24120 2206 ft 173 kts 245°
2026-05-04 12:09 41.34797 2.22676 1982 ft 173 kts 244°
2026-05-04 12:10 41.34282 2.21177 1747 ft 173 kts 244°
2026-05-04 12:10 41.33782 2.19723 1520 ft 171 kts 245°
2026-05-04 12:10 41.33302 2.18324 1311 ft 160 kts 244°
2026-05-04 12:10 41.32828 2.16942 1069 ft 147 kts 244°
2026-05-04 12:11 41.32413 2.15733 884 ft 143 kts 244°
2026-05-04 12:11 41.31997 2.14521 710 ft 143 kts 244°
2026-05-04 12:11 41.31583 2.13312 517 ft 143 kts 243°
2026-05-04 12:11 41.31162 2.12090 357 ft 142 kts 243°
2026-05-04 12:12 41.30722 2.10825 152 ft 142 kts 243°
2026-05-04 12:12 41.30295 2.09551 26 ft 138 kts 243°
2026-05-04 12:12 41.29940 2.08543 24 ft 85 kts 246°
2026-05-04 12:12 41.29770 2.08017 24 ft 35 kts 258°
2026-05-04 12:13 41.29749 2.07791 24 ft 21 kts 274°
2026-05-04 12:14 41.30076 2.07989 24 ft 14 kts 66°
2026-05-04 12:15 41.30121 2.08124 24 ft 15 kts 64°
2026-05-04 12:15 41.30170 2.08264 24 ft 16 kts 66°
2026-05-04 12:15 41.30215 2.08396 24 ft 10 kts 64°
2026-05-04 12:15 41.30260 2.08453 24 ft 9 kts
2026-05-04 12:16 41.30333 2.08416 24 ft 10 kts 335°
2026-05-04 12:16 41.30362 2.08398 24 ft 3 kts 335°
2026-05-04 12:16 41.30392 2.08370 25 ft 5 kts 311°
2026-05-04 12:16 41.30406 2.08327 24 ft 3 kts 280°
2026-05-04 12:17 41.30407 2.08312 25 ft 0 kts 277°
2026-05-04 12:17 41.30407 2.08315 25 ft 0 kts 277°
2026-05-04 12:19 41.30407 2.08314 25 ft 0 kts 277°
2026-05-04 12:19 41.30407 2.08315 25 ft 0 kts 277°